Location: Camaret
(48.2753°N, 4.5961°W)
Time: 23:24:53
(UTC+00:00)

Aureole 3 Rocket - Pass Details

Date: 29 October 2020
Orbit: 399 x 1739 km, 82.5° (Epoch: 26 November)

Event Time Altitude Azimuth Distance (km) Brightness Sun altitude
Rises 18:05:30 0° 180° (S) 2,682 6.4 -10.8°
Reaches altitude 10° 18:07:22 10° 177° (S) 1,916 5.7 -11.1°
Maximum altitude 18:11:31 68° 95° (E) 785 3.3 -11.8°
Drops below altitude 10° 18:17:24 10° 13° (NNE) 2,687 6.1 -12.8°
Sets 18:20:25 0° 12° (NNE) 3,872 6.9 -13.3°
